Stündliche Wetter Abdrashitovo

Heute, 21 Juni, Montag

Zeit Temperatur Niederschläge Wind Luftdruck Luftfeuchtigkeit
00:00 +12°C° 0 mm 2 m/S 745 mmHg 58%
01:00 +11°C° 0 mm 1 m/S 745 mmHg 62%
02:00 +10°C° 0 mm 1 m/S 746 mmHg 63%
03:00 +10°C° 0 mm 1 m/S 746 mmHg 65%
04:00 +9°C° 0 mm 1 m/S 747 mmHg 67%
05:00 +11°C° 0 mm 1 m/S 747 mmHg 63%
06:00 +12°C° 0 mm 1 m/S 747 mmHg 59%
07:00 +14°C° 0 mm 1 m/S 748 mmHg 55%
08:00 +15°C° 0 mm 2 m/S 748 mmHg 52%
09:00 +16°C° 0 mm 2 m/S 748 mmHg 48%
10:00 +17°C° 0 mm 2 m/S 748 mmHg 44%
11:00 +18°C° 0 mm 2 m/S 748 mmHg 43%
12:00 +19°C° 0 mm 2 m/S 748 mmHg 41%
13:00 +20°C° 0 mm 2 m/S 748 mmHg 40%
14:00 +22°C° 0 mm 1 m/S 748 mmHg 41%
15:00 +22°C° 0 mm 1 m/S 747 mmHg 42%
16:00 +23°C° 0 mm 1 m/S 747 mmHg 42%
17:00 +22°C° 0 mm 1 m/S 747 mmHg 49%
18:00 +21°C° 0 mm 1 m/S 746 mmHg 57%
19:00 +21°C° 0 mm 1 m/S 746 mmHg 64%
20:00 +19°C° 0 mm 1 m/S 746 mmHg 65%
21:00 +18°C° 0 mm 1 m/S 746 mmHg 67%
22:00 +15°C° 0 mm 1 m/S 746 mmHg 68%
23:00 +15°C° 0 mm 1 m/S 746 mmHg 71%

Morgen, 22 Juni, Dienstag

Zeit Temperatur Niederschläge Wind Luftdruck Luftfeuchtigkeit
00:00 +14°C° 0 mm 1 m/S 746 mmHg 74%
01:00 +14°C° 0 mm 1 m/S 746 mmHg 76%
02:00 +14°C° 0 mm 1 m/S 746 mmHg 79%
03:00 +14°C° 0 mm 1 m/S 746 mmHg 81%
04:00 +13°C° 0 mm 1 m/S 746 mmHg 84%
05:00 +15°C° 0 mm 1 m/S 746 mmHg 80%
06:00 +17°C° 0 mm 2 m/S 746 mmHg 76%
07:00 +18°C° 0 mm 2 m/S 746 mmHg 72%
08:00 +20°C° 0 mm 2 m/S 746 mmHg 68%
09:00 +22°C° 0 mm 3 m/S 746 mmHg 64%
10:00 +25°C° 0 mm 3 m/S 746 mmHg 61%
11:00 +27°C° 0 mm 4 m/S 745 mmHg 57%
12:00 +28°C° 0 mm 4 m/S 745 mmHg 53%
13:00 +29°C° 0 mm 5 m/S 745 mmHg 49%
14:00 +29°C° 0 mm 5 m/S 745 mmHg 53%
15:00 +29°C° 0 mm 5 m/S 745 mmHg 56%
16:00 +28°C° 0 mm 5 m/S 744 mmHg 59%
17:00 +27°C° 0.1 mm 4 m/S 744 mmHg 64%
18:00 +26°C° 0.1 mm 4 m/S 744 mmHg 70%
19:00 +25°C° 0.1 mm 4 m/S 744 mmHg 75%
20:00 +23°C° 0.1 mm 4 m/S 744 mmHg 80%
21:00 +21°C° 0.1 mm 3 m/S 744 mmHg 85%
22:00 +20°C° 0.1 mm 3 m/S 743 mmHg 90%
23:00 +20°C° 0.2 mm 3 m/S 743 mmHg 91%

übermorgen, 23 Juni, Mittwoch

Zeit Temperatur Niederschläge Wind Luftdruck Luftfeuchtigkeit
00:00 +19°C° 0.2 mm 2 m/S 743 mmHg 91%
01:00 +19°C° 0.2 mm 2 m/S 743 mmHg 92%
02:00 +19°C° 0.2 mm 2 m/S 743 mmHg 92%
03:00 +19°C° 0.2 mm 1 m/S 743 mmHg 92%
04:00 +19°C° 0.2 mm 1 m/S 743 mmHg 93%
05:00 +18°C° 0.4 mm 2 m/S 744 mmHg 91%
06:00 +19°C° 0.4 mm 2 m/S 744 mmHg 90%
07:00 +20°C° 0.4 mm 3 m/S 744 mmHg 88%
08:00 +20°C° 0 mm 3 m/S 744 mmHg 86%
09:00 +19°C° 0 mm 3 m/S 745 mmHg 84%
10:00 +19°C° 0 mm 4 m/S 745 mmHg 82%
11:00 +19°C° 0.3 mm 3 m/S 745 mmHg 83%
12:00 +19°C° 0.3 mm 3 m/S 745 mmHg 83%
13:00 +18°C° 0.3 mm 3 m/S 745 mmHg 84%
14:00 +19°C° 0.2 mm 3 m/S 745 mmHg 81%
15:00 +19°C° 0.2 mm 2 m/S 745 mmHg 78%
16:00 +19°C° 0.2 mm 2 m/S 745 mmHg 76%
17:00 +21°C° 0 mm 1 m/S 745 mmHg 75%
18:00 +21°C° 0 mm 1 m/S 745 mmHg 73%
19:00 +21°C° 0 mm 1 m/S 745 mmHg 72%
20:00 +20°C° 0 mm 1 m/S 745 mmHg 76%
21:00 +18°C° 0 mm 1 m/S 745 mmHg 79%
22:00 +14°C° 0 mm 0 m/S 745 mmHg 82%
23:00 +14°C° 0 mm 0 m/S 745 mmHg 84%

24 Juni, Donnerstag

Zeit Temperatur Niederschläge Wind Luftdruck Luftfeuchtigkeit
00:00 +14°C° 0 mm 1 m/S 745 mmHg 86%
01:00 +14°C° 0 mm 1 m/S 745 mmHg 87%
02:00 +13°C° 0 mm 1 m/S 745 mmHg 88%
03:00 +13°C° 0 mm 1 m/S 745 mmHg 88%
04:00 +12°C° 0 mm 1 m/S 745 mmHg 89%
05:00 +14°C° 0 mm 1 m/S 745 mmHg 83%
06:00 +16°C° 0 mm 1 m/S 745 mmHg 78%
07:00 +18°C° 0 mm 1 m/S 745 mmHg 72%
08:00 +20°C° 0 mm 1 m/S 745 mmHg 66%
09:00 +21°C° 0 mm 1 m/S 745 mmHg 60%
10:00 +23°C° 0 mm 1 m/S 745 mmHg 54%
11:00 +24°C° 0 mm 1 m/S 745 mmHg 49%
12:00 +25°C° 0 mm 1 m/S 744 mmHg 45%
13:00 +26°C° 0 mm 1 m/S 744 mmHg 41%
14:00 +26°C° 0 mm 1 m/S 744 mmHg 41%
15:00 +26°C° 0 mm 1 m/S 744 mmHg 41%
16:00 +26°C° 0 mm 1 m/S 744 mmHg 41%
17:00 +25°C° 0 mm 1 m/S 743 mmHg 48%
18:00 +25°C° 0 mm 1 m/S 743 mmHg 55%
19:00 +24°C° 0 mm 1 m/S 743 mmHg 62%
20:00 +22°C° 0 mm 1 m/S 742 mmHg 64%
21:00 +19°C° 0 mm 2 m/S 742 mmHg 67%
22:00 +18°C° 0 mm 2 m/S 742 mmHg 70%
23:00 +17°C° 0 mm 2 m/S 741 mmHg 74%

25 Juni, Freitag

Zeit Temperatur Niederschläge Wind Luftdruck Luftfeuchtigkeit
00:00 +17°C° 0 mm 2 m/S 741 mmHg 79%
01:00 +17°C° 0 mm 3 m/S 741 mmHg 84%
02:00 +17°C° 0 mm 2 m/S 740 mmHg 87%
03:00 +17°C° 0 mm 2 m/S 740 mmHg 91%
04:00 +17°C° 0 mm 2 m/S 739 mmHg 95%
05:00 +19°C° 0.3 mm 3 m/S 739 mmHg 93%
06:00 +20°C° 0.3 mm 3 m/S 739 mmHg 91%
07:00 +21°C° 0.3 mm 4 m/S 739 mmHg 89%
08:00 +22°C° 0.1 mm 4 m/S 739 mmHg 83%
09:00 +25°C° 0.1 mm 4 m/S 739 mmHg 78%
10:00 +26°C° 0.1 mm 4 m/S 739 mmHg 73%
11:00 +27°C° 0 mm 4 m/S 738 mmHg 67%
12:00 +29°C° 0 mm 4 m/S 738 mmHg 60%
13:00 +30°C° 0 mm 4 m/S 738 mmHg 54%
14:00 +29°C° 0 mm 3 m/S 738 mmHg 58%
15:00 +29°C° 0 mm 3 m/S 738 mmHg 62%
16:00 +28°C° 0 mm 3 m/S 737 mmHg 66%
17:00 +27°C° 0.4 mm 3 m/S 737 mmHg 71%
18:00 +26°C° 0.4 mm 3 m/S 738 mmHg 75%
19:00 +25°C° 0.4 mm 4 m/S 738 mmHg 80%
20:00 +24°C° 0.5 mm 3 m/S 737 mmHg 83%
21:00 +23°C° 0.5 mm 2 m/S 737 mmHg 86%
22:00 +21°C° 0.5 mm 1 m/S 737 mmHg 89%
23:00 +21°C° 0 mm 1 m/S 737 mmHg 90%

26 Juni, Samstag

Zeit Temperatur Niederschläge Wind Luftdruck Luftfeuchtigkeit
00:00 +21°C° 0 mm 1 m/S 737 mmHg 90%
01:00 +20°C° 0 mm 1 m/S 737 mmHg 90%
02:00 +20°C° 0.3 mm 1 m/S 737 mmHg 90%
03:00 +20°C° 0.3 mm 1 m/S 737 mmHg 91%
04:00 +20°C° 0.3 mm 1 m/S 737 mmHg 92%
05:00 +21°C° 0 mm 1 m/S 737 mmHg 89%
06:00 +20°C° 0 mm 0 m/S 737 mmHg 86%
07:00 +21°C° 0 mm 0 m/S 738 mmHg 83%
08:00 +23°C° 0.1 mm 0 m/S 737 mmHg 77%
09:00 +26°C° 0.1 mm 1 m/S 737 mmHg 72%
10:00 +27°C° 0.1 mm 1 m/S 737 mmHg 67%
11:00 +28°C° 0.2 mm 1 m/S 737 mmHg 64%
12:00 +29°C° 0.2 mm 1 m/S 737 mmHg 61%
13:00 +30°C° 0.2 mm 1 m/S 737 mmHg 57%
14:00 +29°C° 0.2 mm 1 m/S 737 mmHg 60%
15:00 +29°C° 0.2 mm 1 m/S 737 mmHg 62%
16:00 +28°C° 0.2 mm 1 m/S 737 mmHg 64%
17:00 +28°C° 0.5 mm 1 m/S 737 mmHg 69%
18:00 +27°C° 0.5 mm 1 m/S 737 mmHg 74%
19:00 +26°C° 0.5 mm 1 m/S 737 mmHg 78%
20:00 +25°C° 0.1 mm 1 m/S 737 mmHg 80%
21:00 +24°C° 0.1 mm 1 m/S 737 mmHg 83%
22:00 +20°C° 0.1 mm 0 m/S 737 mmHg 85%
23:00 +20°C° 0 mm 0 m/S 737 mmHg 86%
Mehr zeigen

Wir brauchen deine Erlaubnis

Meteoprog und unser Service Anbieter werden persönliche Daten aufbewahren, so wie Cookies, Geräte Bezeichnung oder ähnliche Technologien von deinem Gerät und Prozess, so wie Persönliche Daten Inhalte und Werbungen, genauso wie social Media und den Verkehr zu analysieren.

  • Aufbewahrung und/oder Zugang zu deiner Geräte Informationen.

    Cookies, Geräte Bezeichnung oder andere Informationen, können aufbewahrt oder Zugang zu deinem Gerät erhalten, für den Grund, der oben angegeben wird.

  • Personalisierte Werbung und Inhalte, Messungen, Einblick in das Publikum und Produkt Entwicklung.

    Werbungen und Inhalte können personalisiert werden, basierend auf ein Profil. Mehr Daten können besser personalisierte Werbungen und Inhalte hinzufügen. Werbung und Inhalte können gezeigt und gemessen werden. Einblicke über das Publikum, welche die Werbung gesehen haben und den Inhalt, können abgeleitet werden. So wie Daten können genutzt werden, um es zu verbessern oder die Benutzer Erfahrung zu verbessern das System und die Software.

Wenn du “Ich stimme zu” klickst, erlaubst du uns, die Cookies zu benutzen die Geräte Bezeichnung, den Web oder ähnliche Technologien zu benutzen. Deine Settings, können in deinem Gerät bei deinem Browser geändert werden.

Für den bestimmten Zweck, berechtigten Interessen beruhen darauf, mehr als auf den Inhalt. Du kannst mehr darüber in unseren Privaten und Cookie Politik lesen.